Rochelle, IL

3:56 AM CST on November 15, 2019 (GMT -0600)
Rochelle

Weather History for KRPJ - September, 2019

Change the Weather History Date:

Friday, September 6, 2019

  Actual Average (KRFD) Record (KRFD)
Temperature  
Mean Temperature 64 °F -  
Max Temperature 71 °F 78 °F 102 °F (1922)
Min Temperature 55 °F 55 °F 38 °F (1924)
Degree Days  
Heating Degree Days 2    
Growing Degree Days 14 (Base 50)    
Moisture  
Dew Point 61 °F    
Average Humidity 86    
Maximum Humidity 100    
Minimum Humidity 68    
Precipitation  
Precipitation 0.00 in - - ()
Sea Level Pressure  
Sea Level Pressure 29.98 in    
Wind  
Wind Speed 6 mph ()    
Max Wind Speed 17 mph    
Max Gust Speed 22 mph    
Visibility 10.0 miles    
Events      
Averages and records for this station are not official NWS values.
T = Trace of Precipitation, MM = Missing Value Source: Averaged Metar Reports

Daily Weather History Graph

Daily Weather History Graph

Search for Another Location

Airport or City:

Astronomy

Sep. 06, 2019 Rise Set
Actual Time 6:26 AM CDT 7:21 PM CDT
Civil Twilight 5:58 AM CDT 7:50 PM CDT
Nautical Twilight 5:24 AM CDT 8:23 PM CDT
Astronomical Twilight 4:49 AM CDT 8:58 PM CDT
Moon 2:42 PM CDT (9/6) No Moon Set
Length of Visible Light 13h 51m
Length of Day
12h 54m
First Quarter, 56% of the Moon is Illuminated
Sep 6
First Quarter
Sep 13
Full
Sep 21
Last Quarter
Sep 28
New
Oct 5
First Quarter

Hourly Weather History & Observations

Time (CDT) Temp. Dew Point Humidity Pressure Visibility Wind Dir Wind Speed Gust Speed Precip Events Conditions
12:15 AM 61.0 °F 60.4 °F 98% 30.00 in 10.0 mi SSE 3.5 mph - N/A   Overcast
12:35 AM 61.5 °F 60.8 °F 97% 29.99 in 10.0 mi Calm Calm - N/A   Overcast
12:55 AM 61.9 °F 60.8 °F 96% 29.98 in 10.0 mi SSE 4.6 mph - N/A   Overcast
1:15 AM 61.9 °F 60.8 °F 96% 29.98 in 10.0 mi SSE 3.5 mph - N/A   Overcast
1:35 AM 62.1 °F 60.8 °F 96% 29.97 in 10.0 mi SSE 4.6 mph - N/A   Overcast
1:55 AM 62.6 °F 60.4 °F 93% 29.96 in 10.0 mi South 4.6 mph - N/A   Overcast
2:15 AM 63.3 °F 60.8 °F 91% 29.95 in 10.0 mi South 5.8 mph - N/A   Overcast
2:35 AM 63.7 °F 60.4 °F 89% 29.94 in 10.0 mi South 5.8 mph - N/A   Overcast
2:55 AM 63.9 °F 60.8 °F 90% 29.93 in 10.0 mi South 4.6 mph - N/A   Overcast
3:15 AM 63.7 °F 60.8 °F 90% 29.92 in 10.0 mi South 3.5 mph - N/A   Overcast
3:35 AM 63.7 °F 61.0 °F 91% 29.91 in 10.0 mi South 6.9 mph - N/A   Overcast
3:55 AM 63.5 °F 60.8 °F 91% 29.91 in 10.0 mi SSW 5.8 mph - N/A   Overcast
4:35 AM 63.0 °F 61.0 °F 93% 29.91 in 10.0 mi SSW 3.5 mph - N/A   Overcast
4:55 AM 62.2 °F 61.2 °F 96% 29.90 in 10.0 mi SSW 3.5 mph - N/A   Overcast
5:15 AM 61.7 °F 61.2 °F 98% 29.90 in 10.0 mi SSW 4.6 mph - N/A   Mostly Cloudy
5:35 AM 61.7 °F 61.2 °F 98% 29.89 in 10.0 mi SSW 5.8 mph - N/A   Mostly Cloudy
5:55 AM 61.2 °F 60.8 °F 99% 29.90 in 10.0 mi SSW 3.5 mph - N/A   Scattered Clouds
6:15 AM 60.6 °F 60.4 °F 99% 29.90 in 10.0 mi Calm Calm - N/A   Mostly Cloudy
6:35 AM 60.3 °F 60.3 °F 100% 29.90 in 10.0 mi Calm Calm - N/A   Overcast
6:55 AM 61.7 °F 61.7 °F 100% 29.91 in 10.0 mi Calm Calm - N/A   Overcast
7:15 AM 63.0 °F 62.6 °F 99% 29.91 in 10.0 mi West 3.5 mph - N/A   Overcast
7:35 AM 64.4 °F 64.0 °F 99% 29.90 in 10.0 mi West 6.9 mph - N/A   Overcast
7:55 AM 65.7 °F 64.9 °F 98% 29.91 in 10.0 mi WNW 5.8 mph - N/A   Overcast
8:15 AM 66.6 °F 65.3 °F 96% 29.91 in 10.0 mi NW 8.1 mph - N/A   Overcast
8:35 AM 66.7 °F 65.1 °F 95% 29.92 in 10.0 mi NW 11.5 mph - N/A   Overcast
8:55 AM 67.8 °F 63.7 °F 87% 29.93 in 10.0 mi NNW 11.5 mph - N/A   Overcast
9:15 AM 69.8 °F 64.0 °F 82% 29.93 in 10.0 mi NNW 12.7 mph 18.4 mph N/A   Overcast
9:35 AM 68.4 °F 63.5 °F 84% 29.93 in 10.0 mi NNW 11.5 mph 17.3 mph N/A   Overcast
9:55 AM 68.0 °F 63.1 °F 84% 29.94 in 10.0 mi North 11.5 mph 20.7 mph N/A   Overcast
10:15 AM 68.2 °F 62.4 °F 82% 29.94 in 10.0 mi NNW 11.5 mph 18.4 mph N/A   Overcast
10:35 AM 68.5 °F 62.4 °F 81% 29.95 in 10.0 mi NNW 17.3 mph - N/A   Overcast
10:55 AM 68.9 °F 62.1 °F 79% 29.95 in 10.0 mi NNW 12.7 mph 21.9 mph N/A   Overcast
11:15 AM 69.3 °F 62.2 °F 78% 29.96 in 10.0 mi NNW 12.7 mph - N/A   Overcast
11:35 AM 69.4 °F 61.5 °F 76% 29.96 in 10.0 mi NNW 15.0 mph - N/A   Overcast
11:55 AM 69.8 °F 61.7 °F 75% 29.96 in 10.0 mi North 13.8 mph 21.9 mph N/A   Overcast
12:15 PM 70.7 °F 61.3 °F 72% 29.97 in 10.0 mi North 15.0 mph - N/A   Overcast
12:30 PM 70.0 °F 61.2 °F 73% 29.97 in 10.0 mi NNW 12.7 mph 19.6 mph N/A   Overcast
12:55 PM 70.7 °F 61.2 °F 72% 29.98 in 10.0 mi NNW 10.4 mph 20.7 mph N/A   Overcast
1:15 PM 70.0 °F 61.2 °F 73% 29.99 in 10.0 mi NNW 16.1 mph 19.6 mph N/A   Overcast
1:35 PM 70.9 °F 61.5 °F 72% 29.99 in 10.0 mi North 15.0 mph 20.7 mph N/A   Overcast
1:55 PM 71.2 °F 60.8 °F 69% 29.99 in 10.0 mi North 12.7 mph - N/A   Overcast
2:15 PM 70.9 °F 60.6 °F 70% 29.99 in 10.0 mi North 15.0 mph 19.6 mph N/A   Overcast
2:35 PM 70.9 °F 61.7 °F 73% 29.99 in 10.0 mi North 16.1 mph 20.7 mph N/A   Overcast
2:55 PM 70.2 °F 60.6 °F 72% 30.00 in 10.0 mi North 15.0 mph 19.6 mph N/A   Overcast
3:15 PM 68.9 °F 60.6 °F 75% 30.00 in 10.0 mi North 10.4 mph 20.7 mph N/A   Overcast
3:35 PM 70.0 °F 60.8 °F 73% 30.00 in 10.0 mi North 15.0 mph 18.4 mph N/A   Overcast
3:55 PM 69.1 °F 58.8 °F 70% 30.01 in 10.0 mi North 12.7 mph 18.4 mph N/A   Overcast
4:15 PM 68.4 °F 58.8 °F 71% 30.01 in 10.0 mi North 9.2 mph - N/A   Overcast
4:35 PM 68.2 °F 58.5 °F 71% 30.01 in 10.0 mi NNW 13.8 mph 18.4 mph N/A   Overcast
4:55 PM 68.0 °F 58.5 °F 71% 30.02 in 10.0 mi North 9.2 mph - N/A   Overcast
5:15 PM 69.1 °F 58.8 °F 70% 30.02 in 10.0 mi North 11.5 mph - N/A   Overcast
5:35 PM 69.1 °F 59.0 °F 70% 30.02 in 10.0 mi North 11.5 mph 17.3 mph N/A   Scattered Clouds
5:55 PM 69.3 °F 58.3 °F 68% 30.02 in 10.0 mi North 11.5 mph - N/A   Mostly Cloudy
6:15 PM 67.8 °F 58.5 °F 72% 30.03 in 10.0 mi North 6.9 mph - N/A   Mostly Cloudy
6:35 PM 67.1 °F 59.2 °F 76% 30.03 in 10.0 mi North 5.8 mph - N/A   Mostly Cloudy
6:55 PM 66.6 °F 59.5 °F 78% 30.04 in 10.0 mi NNW 3.5 mph - N/A   Overcast
7:15 PM 66.4 °F 59.9 °F 80% 30.04 in 10.0 mi NNW 3.5 mph - N/A   Overcast
7:35 PM 66.2 °F 60.3 °F 81% 30.05 in 10.0 mi Calm Calm - N/A   Overcast
7:55 PM 65.1 °F 60.8 °F 86% 30.05 in 10.0 mi Calm Calm - N/A   Overcast
8:15 PM 64.6 °F 60.4 °F 86% 30.06 in 10.0 mi Calm Calm - N/A   Overcast
8:35 PM 64.0 °F 60.3 °F 87% 30.06 in 10.0 mi Calm Calm - N/A   Overcast
8:55 PM 63.1 °F 61.0 °F 93% 30.06 in 10.0 mi Calm Calm - N/A   Overcast
9:15 PM 62.4 °F 59.5 °F 90% 30.06 in 10.0 mi NW 3.5 mph - N/A   Scattered Clouds
9:35 PM 61.2 °F 59.7 °F 95% 30.06 in 10.0 mi Calm Calm - N/A   Scattered Clouds
9:55 PM 60.8 °F 59.7 °F 96% 30.06 in 10.0 mi North 3.5 mph - N/A   Scattered Clouds
10:15 PM 60.6 °F 59.0 °F 94% 30.07 in 10.0 mi Calm Calm - N/A   Clear
10:35 PM 58.5 °F 58.3 °F 99% 30.07 in 10.0 mi Calm Calm - N/A   Clear
10:55 PM 57.0 °F 56.7 °F 99% 30.07 in 10.0 mi Calm Calm - N/A   Clear
11:15 PM 56.5 °F 56.5 °F 100% 30.07 in 10.0 mi Calm Calm - N/A   Clear
11:35 PM 56.1 °F 56.1 °F 100% 30.07 in 10.0 mi Calm Calm - N/A   Clear
11:55 PM 55.4 °F 55.4 °F 100% 30.07 in 10.0 mi Calm Calm - N/A   Clear